Regional Weather Roundup
Issued by NWS Columbia, SC

Home | Current Version | Previous Version | Text Only | Print | Product List | Glossary On
Versions: 1 2 3 4 5 6 7 8 9 10 11 12 13 14 15 16 17 18 19 20 21 22 23 24 25 26 27 28 29 30 31 32 33 34 35 36 37 38 39 40 41 42 43 44 45 46 47 48 49 50
000
ASUS42 KCAE 272310
RWRCAE
REGIONAL WEATHER ROUNDUP
NATIONAL WEATHER SERVICE COLUMBIA SC
600 PM EST THU NOV 27 2014

NOTE: "FAIR" INDICATES FEW OR NO CLOUDS BELOW 12,000 FEET WITH NO
SIGNIFICANT WEATHER AND/OR OBSTRUCTIONS TO VISIBILITY.

NOT ALL STATIONS ARE QUALITY CONTROLLED BY THE NATIONAL
WEATHER SERVICE. USE DATA WITH CAUTION...ESPECIALLY
DEWPOINT OBSERVATIONS.

SCZ001>056-GAZ040-063>065-077-280000-
...UPSTATE SOUTH CAROLINA...

CITY           SKY/WX    TMP DP  RH WIND       PRES   REMARKS
ANDERSON       CLEAR     43  25  49 NW14      30.25R
LIBERTY        FAIR      41  28  59 MISG      30.24R
SPARTANBURG    FAIR      43  27  52 N9G18     30.22R
CLEMSON        MOCLDY    44  23  43 NW6       30.27R
GREENVILLE     CLEAR     43  23  45 N8        30.24R
GREENWOOD      CLEAR     45  26  47 VRB6      30.24R
GREER          CLEAR     40  24  53 N6        30.22R
ROCK HILL      CLEAR     44  27  51 NW5       30.21R
CHESTER        FAIR      45  27  49 NW9G17    30.22R
LAURENS        FAIR      43  19  39 N6        30.23R


...CENTRAL SOUTH CAROLINA...

CITY           SKY/WX    TMP DP  RH WIND       PRES   REMARKS
COLUMBIA APT   PTCLDY    49  30  48 W6        30.20R
COLUMBIA OWENS PTCLDY    51  27  39 VRB3      30.21R
DARLINGTON     PTCLDY    41  34  75 NW3       30.19R
FLORENCE       PTCLDY    45  36  70 CALM      30.18R
MCENTIRE ANGB  PTCLDY    43  28  53 N5        30.20R
ORANGEBURG     CLEAR     49  29  46 W7        30.20R
SUMTER SHAW    CLEAR     48  28  46 NW5       30.18R
NEWBERRY       FAIR      45  28  53 N6        30.25R
AIKEN          FAIR      46  32  57 W9        30.25R
BARNWELL       FAIR      46  32  57 W5        30.23R
CAMDEN         FAIR      45  32  61 NW8       30.21R
LANCASTER      FAIR      45  28  53 W8        30.20R
WINNSBORO      FAIR      45  30  57 NW9       30.20R


...EASTERN AND COASTAL SOUTH CAROLINA...

CITY           SKY/WX    TMP DP  RH WIND       PRES   REMARKS
MYRTLE BEACH   CLEAR     50  34  53 N12       30.16R
N MYRTLE BCH   CLEAR     47  36  65 N5        30.16R
CONWAY         FAIR      45  37  76 CALM      30.17R
MARION         FAIR      45  36  70 CALM      30.18R
FLORENCE       PTCLDY    45  36  70 CALM      30.18R
DARLINGTON     PTCLDY    41  34  75 NW3       30.19R
CHARLESTON APT PTCLDY    49  31  49 NW6       30.20R
MOUNT PLEASANT FAIR      46  36  66 CALM      30.19R
WALTERBORO     CLEAR     46  32  57 W5        30.22R
BEAUFORT       CLEAR     49  31  49 W6        30.23R


...EASTERN GEORGIA...

CITY           SKY/WX    TMP DP  RH WIND       PRES   REMARKS
AUGUSTA BUSH F CLEAR     48  27  44 NW14      30.25R
AUGUSTA DANIEL CLEAR     49  27  42 NW10      30.24R
THOMSON        CLEAR     46  34  61 W10       30.31R
WASHINGTON     FAIR      45  32  61 NW7       30.28R
CLAXTON        FAIR      50  12  22 W7        30.26R
SYLVANIA       CLEAR     49  36  59 NW7       30.24R
STATESBORO     CLEAR     48  33  56 NW7       30.24R
SAVANNAH       CLEAR     50  31  48 NW6       30.24R


...SOUTHERN NORTH CAROLINA...

CITY           SKY/WX    TMP DP  RH WIND       PRES   REMARKS
CHARLOTTE      MOCLDY    44  23  43 NW13      30.20R
MONROE         MOCLDY    47  27  45 NW7       30.18R
WADESBORO      CLEAR     44  31  58 NW8       30.18R
ROCKINGHAM     CLEAR     45  33  63 NW5       30.17R
RUTHERFORDTON  CLOUDY    39  24  54 CALM      30.23R
ASHEVILLE      CLOUDY    34  25  69 N10G21    30.22R WCI  26

$$


USA.gov is the U.S. government's official web portal to all federal, state and local government web resources and services.